Wind_Speed
3 2 1 4 6 8 9 8 8 8 8 8 6 5 6 5 2 2 2 5 8 5 4 7 5 6 7 6 5 3 4 4 5 4 2 2 3 6 8 8 9 7 6 9 13 22 27 25 27 27 26 26 25 26 27 26 25 25 25 24 24 24 23 22 21 20 20 18 16 15 16 18 20 19 16 15 12 10 11 12 13 13 12 11 10 9
4 3 6 10 11 11 9 7 8 8 9 7 5 6 3 2 2 0 3 6 6 3 3 5 4 6 6 5 5 4 5 4 5 6 4 4 3 5 7 9 9 9 7 10 10 19 26 24 26 27 27 27 25 26 28 27 27 27 26 25 25 24 23 22 22 22 20 18 16 17 18 20 21 20 19 17 14 12 11 12 13 12 12 12 11 10
2 4 10 12 10 8 8 9 10 6 7 7 4 6 4 2 2 3 2 6 6 1 1 4 4 4 5 4 4 4 5 3 4 6 5 5 4 4 6 8 10 11 11 11 8 17 23 24 26 26 26 27 24 25 28 28 29 28 27 27 25 24 22 22 25 24 20 17 16 16 18 21 21 20 19 16 14 13 12 13 12 11 12 13 12 11
2 6 12 12 9 7 8 7 3 1 4 5 6 5 4 6 5 1 2 5 5 2 2 5 3 3 4 4 3 4 3 0 2 4 4 4 5 5 7 8 10 12 13 10 9 14 20 23 25 24 26 26 23 24 27 28 29 28 29 28 26 24 21 20 25 24 18 15 15 14 15 17 18 18 17 15 14 13 12 13 12 11 12 13 13 12
7 9 9 9 8 5 2 1 4 5 3 2 7 5 5 8 4 2 5 5 3 2 3 6 2 4 4 3 5 4 2 1 2 4 4 4 4 4 5 7 9 11 12 11 10 13 17 20 23 24 26 26 24 24 27 28 29 29 30 29 26 25 22 19 22 21 17 16 16 14 15 15 14 15 16 15 14 13 13 13 13 12 12 13 14 13
9 10 3 4 5 2 5 3 2 4 2 2 3 5 9 11 6 6 9 6 3 2 3 6 2 4 4 4 7 3 3 5 3 4 6 6 4 4 4 6 7 8 10 12 12 13 16 19 22 24 26 26 25 25 27 28 28 29 30 29 26 26 23 20 21 20 16 17 17 17 17 17 15 15 16 17 16 16 15 15 14 12 12 12 13 13
6 8 1 5 4 4 6 2 3 4 4 3 4 6 11 11 8 11 11 6 3 3 5 5 3 3 4 4 7 4 4 7 4 5 7 6 6 5 5 6 7 7 8 10 11 12 16 19 21 22 25 27 25 25 27 28 27 28 30 29 27 28 26 22 22 21 18 19 19 19 19 18 17 17 18 19 18 17 16 15 13 12 12 12 13 13
5 6 2 2 3 2 3 1 6 4 7 3 4 7 13 11 9 13 12 6 4 3 2 4 4 0 3 5 5 6 5 6 6 7 7 6 7 6 6 6 8 9 8 8 10 11 14 19 21 23 25 27 27 26 27 27 27 28 31 28 27 29 28 23 22 23 20 19 21 21 20 19 19 20 19 20 20 18 16 15 14 13 13 13 12 11
3 2 2 3 4 1 4 5 5 2 4 5 4 5 12 11 11 13 10 5 3 4 2 5 3 1 4 4 1 4 5 6 8 10 9 8 8 8 8 7 7 9 10 9 9 11 14 20 23 25 27 27 28 27 26 27 27 29 30 29 28 30 29 22 22 24 20 19 22 23 21 20 20 21 19 20 21 19 17 16 14 14 14 14 12 11
2 3 6 7 4 4 5 5 5 4 3 5 0 4 6 7 11 11 8 4 2 3 4 8 6 2 4 3 1 3 3 7 9 10 9 9 9 9 9 8 7 8 9 10 9 11 16 22 24 26 28 28 28 28 27 27 27 29 30 30 30 30 29 24 22 23 21 20 22 22 21 20 20 21 20 20 21 20 19 17 16 15 15 14 14 13
4 2 3 5 4 5 4 4 4 6 6 2 5 5 4 4 7 6 2 4 3 2 5 8 9 5 2 4 3 3 4 6 7 6 7 8 9 9 9 8 8 8 8 9 9 10 16 22 25 26 27 28 28 28 27 27 28 29 29 30 31 29 29 26 23 23 22 22 22 21 20 20 20 22 22 22 22 21 21 19 18 17 16 15 15 14
3 2 2 2 4 3 3 2 3 1 1 3 5 4 3 3 2 3 3 2 2 4 6 4 5 5 1 4 4 4 6 4 5 7 9 11 11 10 9 8 9 8 9 10 9 9 12 17 22 25 26 27 28 28 28 27 29 30 30 30 29 29 30 29 26 24 23 23 23 22 20 20 21 22 22 23 23 22 22 21 19 18 17 17 16 15
3 3 3 1 2 2 4 1 5 6 5 5 4 5 4 2 3 3 3 1 2 4 4 1 5 3 3 5 5 6 7 5 6 7 9 12 12 11 10 10 8 8 10 10 10 9 9 11 17 22 25 26 28 28 28 28 29 31 31 31 29 29 31 31 29 27 25 24 25 23 21 21 22 21 22 22 22 22 22 21 20 19 18 18 18 17
4 2 1 2 2 1 6 4 1 3 4 4 2 3 4 2 2 1 3 1 1 4 3 3 4 1 3 3 5 7 6 5 6 8 9 10 11 12 11 10 9 9 11 11 10 11 10 11 17 22 24 25 27 29 29 29 31 31 31 32 31 29 31 31 30 29 28 26 27 25 21 20 21 21 22 22 21 21 21 21 20 19 19 20 19 19
3 3 2 4 2 2 4 4 6 4 3 2 2 5 4 3 4 2 2 1 2 3 3 5 2 2 1 2 4 5 6 4 3 4 6 7 9 9 9 9 9 9 10 11 11 11 12 14 19 22 24 26 27 29 30 29 31 32 31 33 33 30 30 31 30 30 29 28 28 27 23 19 20 22 22 21 20 20 20 20 20 19 19 20 20 18
3 1 6 3 2 4 4 3 5 7 3 1 2 5 2 3 5 2 2 4 2 1 1 2 0 2 2 2 3 3 4 4 4 3 2 4 4 6 7 8 8 7 8 10 11 11 14 18 21 22 23 26 28 29 30 31 32 33 32 34 35 33 31 31 31 31 30 29 28 28 25 21 20 22 21 20 20 19 20 20 19 19 18 19 19 18
3 1 4 3 2 4 4 3 3 5 3 0 3 2 3 4 6 3 1 2 3 3 1 1 1 3 2 1 3 4 5 6 5 4 3 4 3 5 6 7 7 6 6 9 11 10 10 13 17 22 25 25 27 29 29 32 35 35 34 35 35 34 32 31 31 31 30 29 28 28 27 23 21 22 22 21 20 20 19 19 19 19 18 17 17 18
2 1 5 2 0 3 2 3 4 2 4 4 2 4 2 2 4 4 1 3 4 2 2 1 2 2 1 1 4 6 7 6 6 4 1 1 2 5 5 5 6 5 3 5 8 8 10 9 13 17 24 26 27 29 31 34 37 37 36 36 36 34 33 32 32 31 30 30 29 28 28 26 23 23 23 22 21 20 19 19 18 19 18 17 16 16
3 1 6 4 3 2 2 6 5 6 4 5 4 4 3 3 1 2 2 1 2 0 2 2 0 1 2 1 4 6 5 5 6 5 3 2 1 4 5 5 5 5 4 3 5 7 11 14 15 15 20 26 27 27 30 34 36 36 36 36 36 36 35 33 32 31 31 31 30 28 28 28 25 24 24 22 21 21 20 20 18 18 18 18 17 17
3 3 3 6 5 2 3 4 2 2 5 4 3 3 3 3 3 1 2 2 2 1 1 1 2 1 3 3 3 4 5 3 4 5 4 4 3 2 2 3 4 5 6 4 5 7 10 16 18 17 17 22 28 28 29 33 35 35 36 36 36 36 35 33 31 31 31 30 30 28 27 28 27 25 25 23 22 22 21 21 19 18 19 18 18 18
3 3 1 6 6 4 3 1 5 5 2 3 4 3 2 2 2 2 1 1 3 3 2 1 2 4 4 3 3 4 4 1 1 2 4 4 5 5 5 4 4 3 5 5 6 7 10 16 20 19 18 19 25 29 29 32 34 35 35 35 35 35 34 33 31 30 30 30 30 28 27 28 28 26 25 24 23 22 22 21 20 20 20 18 18 18
2 2 0 2 4 3 4 3 6 7 5 5 4 3 3 2 2 2 1 2 1 3 3 3 1 5 4 2 4 4 2 1 2 2 1 4 4 5 6 5 6 5 3 5 6 5 7 11 17 22 21 17 16 23 30 32 33 34 34 34 35 34 34 34 33 31 31 30 30 29 28 28 28 27 26 25 24 23 22 22 21 20 20 20 19 19
3 3 3 1 1 2 6 2 6 8 5 5 3 3 3 3 4 4 2 2 1 1 1 3 1 5 4 3 4 4 2 2 3 4 1 2 3 3 5 5 5 5 5 3 4 3 2 2 6 18 24 18 12 17 26 32 32 33 34 34 33 33 34 34 33 32 31 30 30 30 28 28 28 28 27 26 26 25 24 24 23 21 21 22 22 22
1 3 3 2 4 4 6 5 4 5 5 5 2 3 4 3 4 5 4 3 3 2 1 2 0 4 5 4 3 3 3 3 3 4 3 2 3 3 4 5 3 3 5 4 2 1 1 3 4 10 19 20 16 17 22 30 33 33 34 34 34 33 34 35 33 32 31 30 30 30 29 28 28 28 28 28 27 27 26 25 24 24 23 23 22 23
1 1 3 3 4 5 5 6 5 5 3 2 1 2 4 6 6 4 2 3 2 3 4 3 2 5 4 2 1 3 5 4 3 2 3 1 2 3 3 3 1 1 3 5 5 4 5 6 9 8 14 18 19 19 21 26 32 34 34 34 34 34 34 34 33 32 32 31 30 30 30 29 28 29 30 30 29 28 26 24 23 23 24 22 21 22
3 2 4 4 3 1 1 1 2 2 2 1 1 3 5 8 9 5 2 3 1 3 4 4 4 5 5 3 2 4 5 5 5 3 3 3 3 4 3 3 3 0 1 3 5 6 7 8 12 11 9 17 22 21 20 21 27 33 35 35 35 34 34 33 33 32 32 32 31 31 31 30 30 30 30 31 30 29 27 24 22 22 22 22 23 23
3 2 3 6 6 5 6 6 5 2 1 3 3 5 6 8 8 6 4 3 3 3 3 4 5 3 6 6 4 4 5 4 5 3 3 2 1 3 3 2 4 3 2 2 4 6 7 8 4 10 11 9 18 24 20 16 19 25 30 33 34 34 35 34 33 33 33 33 32 32 33 32 31 31 31 31 29 28 28 25 24 24 24 24 25 24
4 1 1 6 7 7 8 7 6 3 3 5 5 6 8 8 8 7 5 5 5 6 3 6 6 4 5 7 6 6 5 4 5 2 2 2 3 3 3 3 5 5 3 1 4 5 4 6 6 3 9 16 12 17 23 18 15 19 23 25 26 29 32 34 35 34 34 33 33 33 34 33 32 31 31 31 29 28 28 27 27 27 26 26 25 23
5 1 4 4 3 4 5 5 4 2 3 6 5 6 9 9 10 10 7 6 9 7 5 6 8 7 6 6 5 5 4 4 5 4 3 2 3 2 1 3 5 5 5 3 3 5 4 2 2 7 8 5 13 10 17 21 18 19 22 23 21 22 25 28 31 34 34 34 34 35 35 34 33 31 30 30 29 27 27 27 28 27 26 27 27 23
4 2 4 3 2 5 5 4 4 5 4 6 6 5 9 11 12 10 7 8 10 6 4 6 9 7 4 3 3 4 4 4 3 3 1 2 3 2 1 1 3 5 5 3 2 4 5 5 2 2 8 9 3 10 7 13 21 21 22 23 22 19 19 19 21 26 30 32 33 34 35 35 33 32 30 30 30 28 26 25 25 23 22 24 25 22
3 2 3 3 1 5 6 5 6 6 4 5 8 5 7 10 8 5 4 7 6 1 1 6 6 3 3 2 3 3 3 2 1 4 4 3 3 2 2 1 2 4 6 4 2 4 5 6 6 4 5 10 11 6 8 7 16 22 22 22 23 21 19 16 14 16 19 23 26 28 30 31 30 28 28 28 28 27 25 25 23 19 18 19 19 18
3 1 0 5 4 4 4 4 5 5 5 6 7 6 1 6 4 0 2 5 5 4 5 6 4 3 4 3 3 3 4 3 4 6 4 2 1 1 2 2 3 4 5 5 3 1 4 4 5 6 7 8 12 14 12 11 16 22 22 22 23 24 23 19 17 16 17 20 23 24 24 27 27 25 22 22 23 23 23 24 22 19 18 18 16 16
4 3 2 4 3 3 4 2 2 3 6 4 3 2 1 4 5 5 5 4 2 5 7 5 4 5 5 5 3 3 5 5 6 5 2 2 2 2 1 2 3 4 4 4 5 3 2 3 4 5 8 10 12 15 15 15 18 21 24 25 24 25 26 23 21 21 21 22 24 24 23 23 24 24 21 19 19 19 21 23 23 21 20 19 18 18
3 5 3 3 4 3 6 3 4 4 3 4 6 3 3 6 10 9 5 5 4 3 5 4 3 5 7 6 6 6 6 4 3 2 2 2 2 3 3 2 2 2 3 4 5 4 3 1 2 1 2 5 9 11 12 14 18 20 23 26 27 28 28 26 24 24 24 24 25 26 24 22 21 22 23 21 18 18 19 21 22 21 20 20 19 19
4 5 3 2 4 2 2 5 5 2 5 7 6 1 4 10 15 12 7 6 5 4 7 6 5 7 7 6 5 4 2 1 2 0 1 1 1 1 2 3 2 1 2 3 4 4 4 4 4 3 3 2 3 7 10 13 16 18 22 27 30 29 29 27 26 27 26 26 27 27 26 25 24 23 23 21 19 19 19 20 20 20 19 20 20 21
7 5 3 2 3 2 2 4 1 5 6 6 5 2 6 8 11 11 8 6 4 0 5 6 4 4 3 3 2 2 2 2 3 1 2 1 1 0 1 3 3 2 1 2 3 4 4 4 5 4 4 4 4 5 7 11 13 15 18 25 30 30 30 30 29 29 29 27 28 29 28 26 26 24 22 20 19 18 18 18 18 17 17 19 20 19
8 6 3 2 2 2 3 2 2 3 5 7 5 1 4 4 5 7 5 2 4 2 4 6 4 3 2 1 1 2 2 3 4 3 3 3 3 3 3 3 2 1 1 3 4 5 5 5 4 4 5 6 8 8 8 10 12 14 14 15 19 23 27 29 28 29 30 29 28 29 28 25 24 23 21 20 18 17 17 16 16 15 14 16 17 16
5 4 5 4 2 2 5 2 2 3 2 5 5 5 3 4 8 8 6 1 4 3 5 6 5 5 3 2 1 1 3 3 3 4 4 4 5 4 4 3 1 2 2 5 6 7 8 8 6 5 5 7 11 12 13 13 14 17 16 13 15 18 22 26 28 29 30 28 27 27 27 25 24 22 20 19 17 17 16 15 16 15 10 8 11 14
7 3 4 5 2 2 5 3 2 2 3 6 5 5 6 2 6 7 6 3 5 5 5 6 5 6 5 4 3 3 3 1 4 4 4 4 4 3 3 2 2 4 6 7 7 7 8 7 5 5 5 7 10 12 14 18 19 22 23 20 20 20 19 22 24 23 23 24 24 24 23 22 20 18 16 15 13 13 13 12 13 12 8 4 9 13
7 5 4 5 3 2 4 3 2 2 3 4 4 5 5 2 4 8 3 5 6 5 6 6 6 6 5 5 4 4 4 4 5 4 2 3 1 2 4 4 5 7 9 9 9 10 10 9 7 7 8 10 11 12 14 18 24 28 26 22 22 22 23 24 23 19 17 19 20 19 17 16 15 14 12 11 10 10 10 12 15 17 12 9 10 12
4 3 3 4 3 3 4 2 2 2 3 4 5 6 4 2 6 5 4 6 4 5 5 5 6 5 5 6 5 4 5 5 3 1 2 5 4 4 6 8 9 10 12 11 11 12 12 11 11 10 12 12 11 15 15 6 23 29 25 22 19 18 22 27 26 22 19 19 19 18 16 15 15 14 12 12 11 12 14 15 18 20 19 17 17 16
2 2 2 2 3 3 3 3 0 3 4 5 5 5 3 4 1 4 6 3 3 5 5 4 5 5 5 5 5 5 4 1 2 3 5 6 5 4 6 8 9 11 12 12 12 12 12 12 13 13 13 14 13 16 17 12 19 23 23 22 18 17 20 24 24 22 20 21 21 21 20 19 18 17 16 15 16 19 21 20 21 22 24 24 23 23
3 3 1 2 3 2 2 3 2 2 5 4 3 2 3 2 4 5 2 2 2 4 4 4 4 5 5 5 5 5 3 2 5 5 5 6 6 6 6 7 8 9 11 12 11 11 11 12 13 13 13 16 17 18 18 17 18 19 21 21 19 20 23 25 25 23 23 23 24 24 23 23 23 23 23 23 25 27 28 27 27 28 28 28 29 29
2 3 2 3 3 3 3 2 3 4 6 3 4 2 3 4 5 5 4 2 2 3 4 4 4 5 6 6 5 4 3 3 5 5 5 5 5 5 6 7 9 10 11 11 10 10 12 12 12 13 15 19 22 22 20 18 18 20 20 19 21 24 26 27 28 27 25 25 26 27 27 28 28 28 28 29 30 31 30 29 29 29 29 29 29 28
3 4 4 3 2 3 4 5 5 4 3 2 3 5 4 3 3 5 6 4 2 3 3 4 5 5 6 6 5 4 3 4 5 5 4 5 5 5 7 9 10 11 9 9 9 11 12 12 13 14 17 21 26 27 25 22 19 18 19 21 25 27 28 29 30 29 27 27 28 29 30 31 30 30 30 29 30 31 31 30 30 30 28 27 27 26
4 2 3 3 1 2 1 1 2 4 4 3 3 4 4 4 2 4 6 5 3 4 4 4 5 5 6 6 5 4 4 4 5 5 4 5 5 6 8 10 10 10 9 9 9 10 12 13 15 16 18 21 27 30 29 26 23 20 21 24 27 28 29 30 31 30 28 28 28 30 31 32 31 31 30 29 29 30 30 30 30 28 26 24 25 24
4 3 3 3 2 2 1 1 2 5 6 5 6 5 5 5 3 4 6 5 5 5 4 5 5 5 5 6 5 5 5 5 6 5 4 5 5 6 8 9 9 9 10 10 9 10 13 15 16 17 18 20 25 29 31 30 28 25 24 26 28 29 30 31 32 32 30 29 29 30 31 32 32 32 31 29 29 29 28 28 27 25 22 22 22 20
2 1 2 1 2 2 1 1 5 7 5 4 5 5 4 5 5 4 4 5 5 4 3 4 5 5 5 5 6 6 6 5 6 5 5 5 5 6 7 9 9 11 12 12 12 14 16 16 17 18 19 19 24 30 32 31 29 27 27 27 27 30 31 32 33 33 32 31 31 31 31 32 32 32 31 29 28 28 27 25 25 23 21 19 18 16
0 1 1 1 3 3 2 3 6 8 6 6 5 3 2 4 5 4 4 5 5 5 4 3 4 4 5 6 6 7 7 5 5 6 6 6 5 6 8 10 11 13 14 15 15 16 18 18 19 20 20 21 24 29 31 30 28 28 28 27 26 29 31 31 32 32 31 31 31 31 31 31 31 31 30 29 28 27 25 23 21 20 18 17 16 15
2 1 1 2 3 2 2 3 4 6 3 0 1 2 2 4 6 6 5 4 4 5 5 5 4 3 5 7 8 8 7 6 6 8 7 6 7 9 11 12 13 14 15 13 12 13 17 19 20 22 21 19 21 25 28 27 27 28 28 26 24 26 28 29 29 28 28 28 28 28 29 31 31 30 30 29 28 26 25 23 21 19 18 18 16 15
2 3 3 4 3 4 6 6 5 6 5 4 3 2 2 4 6 7 5 4 4 4 5 6 6 5 5 6 9 10 8 6 9 11 8 7 10 13 14 14 13 11 9 7 8 10 13 15 15 16 15 15 17 22 26 27 27 27 26 23 22 22 24 25 25 25 24 25 26 27 29 30 30 30 30 29 28 27 26 25 22 20 19 19 19 19
Wind_Direction
128 109 272 226 236 242 242 225 212 228 220 190 154 143 160 156 184 187 149 160 146 128 194 191 186 207 214 218 223 196 130 132 138 141 176 149 148 171 164 158 157 132 138 215 209 163 157 162 159 160 163 166 170 174 176 178 179 180 179 180 184 186 189 188 186 191 195 191 187 185 183 182 182 183 183 181 184 184 179 177 175 177 181 178 172 176
108 146 231 226 227 232 244 249 247 245 214 181 140 147 144 118 208 177 110 160 152 126 203 180 184 218 221 226 230 186 163 189 174 161 186 179 154 174 169 157 148 121 148 230 224 161 158 161 159 160 162 165 170 175 179 180 180 180 179 180 183 187 190 192 193 193 189 184 179 173 170 171 175 180 183 184 187 185 185 185 182 182 186 184 177 178
138 223 241 235 235 244 261 260 253 240 172 152 137 140 141 162 158 25 53 163 163 149 200 168 186 245 264 253 239 203 185 203 194 178 180 171 158 181 179 159 148 144 166 209 202 159 159 158 158 161 163 167 173 176 177 177 178 178 179 182 184 184 182 184 189 186 181 179 176 170 165 165 167 172 179 183 185 187 192 192 190 192 192 189 184 180
186 239 242 239 240 234 243 245 219 85 93 130 142 138 167 177 151 54 221 177 180 197 143 146 170 288 294 295 278 234 196 10 235 208 203 181 162 181 190 169 158 161 170 189 179 159 159 157 158 161 164 168 173 174 171 171 174 174 176 180 181 181 176 176 181 182 183 183 177 171 169 170 169 172 177 181 184 189 193 194 197 200 198 194 192 186
216 238 232 226 233 212 191 343 63 63 9 136 149 147 167 173 166 161 162 150 176 224 126 117 72 304 262 244 258 248 197 251 245 203 230 227 175 172 193 177 169 168 167 174 172 161 160 160 161 162 164 168 170 170 170 170 171 171 174 176 180 183 179 178 181 182 187 188 184 177 172 174 174 174 177 178 183 193 198 199 200 201 201 197 194 195
229 249 237 174 209 106 75 12 43 104 28 341 181 176 164 166 164 136 132 117 117 250 213 139 93 291 261 230 238 242 206 222 206 183 215 231 198 172 188 183 179 178 170 172 170 163 163 162 162 162 164 167 168 169 172 172 171 172 174 176 180 185 182 180 183 186 190 192 190 183 176 176 174 173 179 182 189 198 203 202 199 197 198 195 193 198
227 243 254 122 143 79 67 1 261 145 95 322 252 167 155 160 150 139 135 123 144 221 223 165 133 278 293 269 233 198 205 225 215 202 211 220 211 183 184 187 181 185 177 173 170 163 164 163 164 164 165 168 169 169 172 172 173 174 174 176 181 183 181 181 186 192 196 194 193 188 184 184 182 181 185 190 195 200 203 203 202 199 196 193 192 195
216 236 291 99 102 89 100 251 255 149 111 258 270 134 150 162 145 144 146 158 191 171 171 177 139 69 292 278 233 167 182 233 234 229 220 211 214 196 187 189 181 184 181 176 172 166 167 167 167 168 168 170 171 171 171 172 175 176 175 178 181 181 182 185 191 196 198 196 194 189 187 189 190 192 192 194 198 201 203 204 206 203 197 196 198 200
210 215 242 138 94 155 198 218 237 117 116 246 276 126 155 165 149 150 161 187 186 109 141 215 160 111 266 280 331 138 174 230 233 228 221 207 210 202 191 189 184 184 181 181 178 170 171 171 170 170 170 171 173 174 175 174 176 177 177 179 180 182 186 190 192 194 195 196 193 189 188 189 190 195 197 195 198 203 204 204 205 203 200 204 210 213
219 179 180 143 128 207 222 229 205 153 191 233 150 99 128 145 151 156 169 172 97 97 202 218 180 170 272 278 84 122 192 231 227 226 221 209 207 204 196 190 186 183 181 185 182 172 173 174 172 170 171 173 174 177 178 178 178 178 179 180 181 184 189 191 191 192 192 191 190 189 190 191 191 195 198 197 200 204 204 205 205 205 207 212 215 218
243 224 183 143 166 194 195 234 201 165 191 169 73 62 55 94 144 151 166 132 108 257 241 216 187 165 288 276 202 169 210 217 206 211 214 209 208 206 200 190 185 183 182 186 184 174 172 173 172 170 171 173 175 178 180 181 181 180 180 181 183 187 191 191 190 192 191 189 190 189 190 194 194 196 199 199 202 203 204 207 208 209 213 215 218 221
265 247 259 200 185 162 127 276 304 31 154 85 69 63 38 359 64 55 352 64 128 258 277 247 178 139 183 266 261 243 241 219 188 197 200 199 203 204 199 191 186 182 181 185 185 178 170 170 172 171 172 174 175 178 180 183 184 184 184 184 186 189 191 192 192 193 194 192 191 190 192 196 197 200 202 201 203 204 205 207 207 209 214 217 220 223
293 208 228 239 220 152 115 63 329 353 19 51 63 68 65 354 359 11 313 244 181 246 276 40 109 109 232 242 275 276 254 222 198 205 203 196 194 196 196 190 184 182 182 184 182 181 175 169 172 174 174 175 177 178 181 183 184 185 187 188 190 191 191 193 195 196 198 197 195 194 197 201 203 206 205 202 203 204 204 205 205 208 214 218 220 220
337 328 61 97 275 210 122 121 324 344 19 52 89 103 101 92 62 322 287 315 281 258 295 23 81 65 285 266 297 302 280 243 215 210 203 194 190 191 194 187 180 181 182 182 182 181 182 176 173 176 177 178 180 181 182 183 183 184 187 189 191 193 193 194 197 198 201 202 200 199 201 205 207 207 203 199 200 201 203 206 208 210 214 217 219 219
45 339 218 172 235 208 137 157 162 138 69 59 125 123 123 130 138 199 220 159 239 252 311 352 36 164 211 264 294 308 304 306 295 241 198 187 189 186 188 187 181 180 179 181 183 181 185 183 175 176 179 180 182 184 182 183 183 184 187 189 191 194 194 196 198 199 202 204 203 203 204 205 204 202 200 200 202 203 203 206 209 212 213 216 219 221
59 274 232 227 226 159 165 217 152 113 69 324 80 88 99 165 143 147 186 181 187 157 304 331 250 200 196 239 306 335 329 342 0 358 111 148 166 163 175 190 186 181 178 179 181 184 188 187 180 176 180 182 183 184 183 182 183 184 187 189 192 194 195 196 198 200 203 205 205 206 206 204 202 202 203 204 205 206 207 207 210 213 215 218 221 223
43 281 256 302 315 169 184 227 131 117 142 316 54 105 213 178 130 115 254 301 53 93 244 214 170 303 334 335 337 10 2 353 3 15 94 124 130 153 179 194 185 173 172 177 182 181 178 187 190 180 178 184 184 184 184 183 185 186 188 190 191 194 196 197 199 201 203 205 206 208 208 207 205 206 207 208 207 210 212 214 217 219 221 224 227 226
119 287 280 306 5 238 211 90 61 67 134 116 121 197 208 61 77 96 117 350 36 98 270 259 173 264 350 312 330 11 12 346 343 350 1 125 151 171 188 200 183 147 128 178 177 155 146 185 220 197 179 182 186 186 185 184 187 188 189 190 191 192 195 198 201 202 203 204 206 209 210 209 210 210 211 213 214 213 214 218 222 222 224 227 230 230
112 40 296 349 40 287 354 68 46 355 32 108 155 171 109 78 15 38 92 68 47 62 294 342 174 228 173 241 324 350 348 334 341 354 3 345 245 196 195 207 193 137 110 165 171 149 154 183 218 219 191 183 184 189 187 185 187 188 189 191 192 193 196 198 201 203 204 205 205 209 211 211 213 214 214 216 216 214 215 221 224 224 225 229 233 236
88 98 275 323 354 345 13 52 111 341 9 48 67 59 75 122 156 117 100 143 136 155 269 328 350 282 225 238 285 307 314 331 346 351 353 346 339 322 262 236 225 168 146 165 178 174 172 181 200 220 212 189 183 188 188 185 186 188 190 191 193 195 195 197 200 202 204 206 205 208 211 213 216 216 217 219 218 216 218 221 225 227 229 233 236 236
60 77 261 308 340 20 9 291 175 159 101 70 56 47 60 74 104 115 61 85 124 133 177 200 300 270 245 223 225 272 304 308 305 336 328 332 353 354 347 332 301 241 172 173 180 178 180 184 189 203 218 207 191 187 185 185 187 188 190 192 192 194 194 195 199 201 203 206 206 208 211 214 217 217 218 221 221 221 221 222 225 228 231 235 236 233
86 91 68 329 1 6 295 246 151 144 144 137 134 151 153 121 107 104 19 328 96 135 163 156 222 266 254 205 214 229 241 228 169 138 313 324 343 344 341 336 319 304 247 194 183 177 177 180 177 182 200 216 205 189 183 184 188 188 190 193 193 193 194 195 197 200 203 206 206 209 212 214 217 219 220 221 222 224 225 226 226 225 228 232 232 233
141 101 73 354 242 254 287 314 117 132 131 115 122 145 136 119 114 121 176 244 162 120 152 127 163 266 257 212 220 232 222 209 162 135 131 306 316 327 325 317 316 312 300 260 193 193 117 87 174 179 186 198 210 203 188 182 187 190 190 193 193 193 194 196 197 200 202 204 207 209 211 214 216 219 220 221 222 225 227 230 231 228 227 230 232 234
73 74 66 325 303 307 315 340 64 92 87 83 91 135 129 131 136 143 169 170 136 157 149 87 240 271 268 234 231 274 270 244 189 142 143 224 264 276 282 291 306 319 322 357 68 203 17 352 264 193 181 187 201 216 203 185 185 190 191 192 193 193 195 196 197 199 200 202 206 209 210 213 216 218 219 221 223 226 228 232 234 232 231 235 237 236
72 72 82 49 357 353 349 351 356 356 32 97 182 176 137 119 112 113 120 88 85 200 156 117 236 260 267 255 327 314 290 283 271 169 143 172 288 291 275 282 298 29 347 18 72 136 188 235 255 218 183 188 197 214 215 193 185 188 190 193 194 194 195 196 196 198 200 202 205 208 210 213 215 217 219 221 223 226 229 233 234 231 231 235 238 238
126 152 112 107 120 145 191 252 270 289 311 330 218 188 146 131 130 130 110 91 105 215 150 139 217 260 289 295 327 301 280 290 305 334 46 49 354 326 319 308 292 186 46 21 71 115 164 213 258 264 215 195 196 206 215 202 189 188 190 192 193 194 194 195 196 197 199 202 205 207 210 212 215 217 218 220 222 224 228 232 232 231 232 235 238 240
92 145 139 142 159 178 192 218 231 206 265 275 238 202 172 153 142 119 102 137 175 175 178 209 204 229 292 283 275 273 263 276 297 331 38 67 298 299 295 282 279 255 188 155 105 103 130 158 230 305 312 259 207 195 199 205 196 188 189 191 192 194 194 194 196 197 199 202 205 207 209 211 214 217 218 219 221 221 224 228 231 232 234 236 238 240
90 326 229 160 176 199 196 216 243 233 234 262 255 211 186 164 142 130 152 191 153 133 230 247 192 181 257 257 244 249 248 269 281 257 206 207 211 242 275 290 295 298 307 11 86 90 106 131 151 220 309 310 274 198 181 187 193 182 181 186 189 193 195 194 195 197 199 202 204 207 209 211 214 216 217 219 220 220 222 225 228 231 235 239 239 235
108 224 237 183 216 249 220 224 253 266 265 289 290 211 183 168 166 171 186 184 148 149 226 221 174 185 238 247 229 225 214 219 241 230 207 230 239 233 277 303 310 311 311 340 67 88 99 109 179 181 178 280 298 252 182 171 175 176 177 180 184 190 193 194 195 197 199 202 204 207 209 211 213 215 216 217 218 221 225 227 228 233 238 239 234 225
112 212 230 187 234 293 290 289 325 350 327 314 310 234 183 174 183 188 184 173 166 179 207 173 169 197 252 261 209 192 192 198 232 267 218 215 249 228 177 264 305 301 285 260 144 126 124 126 137 163 151 153 232 289 254 178 169 171 177 183 187 190 189 190 196 199 201 203 205 208 210 210 212 215 215 216 219 222 226 228 229 232 234 229 222 219
103 216 239 137 85 307 309 331 344 346 352 346 327 288 190 175 192 206 164 159 171 207 109 129 152 221 289 271 193 181 194 194 255 270 244 219 227 173 141 218 276 283 281 276 208 155 141 142 149 159 158 153 163 216 278 235 180 173 178 185 189 191 187 184 188 194 199 201 202 207 209 208 209 211 212 215 218 221 224 227 227 224 220 215 212 214
111 173 329 77 65 296 301 352 342 337 19 21 347 334 128 148 162 174 93 133 158 148 114 117 146 224 233 206 184 181 192 206 236 246 251 271 280 106 128 227 270 276 281 292 297 124 127 143 158 174 178 168 175 192 219 229 198 181 179 182 185 188 186 181 179 180 185 191 195 199 201 201 201 201 202 205 211 218 225 227 222 213 207 203 199 200
129 126 116 95 94 269 284 20 29 18 26 358 291 275 124 112 97 68 49 43 107 135 134 155 197 207 191 172 171 202 212 228 245 250 274 315 321 329 244 230 260 279 290 305 313 346 86 140 154 187 195 190 198 204 206 211 206 193 186 182 182 185 184 181 182 184 185 188 190 189 190 193 195 195 196 198 204 213 219 219 213 206 202 198 193 193
122 115 141 138 118 265 287 4 45 37 26 263 245 208 147 118 102 88 58 15 5 76 119 146 171 166 167 174 187 200 211 235 257 252 261 273 284 299 295 281 270 281 315 323 316 327 334 17 113 135 217 209 221 230 227 220 216 209 197 186 182 184 182 179 183 188 188 187 187 187 188 191 194 197 199 199 201 206 211 211 209 205 202 198 193 192
147 125 142 139 118 195 295 39 41 329 234 245 267 325 105 110 107 95 63 25 15 78 112 118 136 156 171 199 216 204 198 355 16 32 249 272 265 291 321 325 320 322 334 322 318 324 327 341 7 10 6 346 279 268 260 243 232 224 207 190 184 185 182 178 180 187 189 187 186 189 190 192 196 200 202 202 204 206 207 209 209 207 204 199 197 198
153 147 143 132 125 137 64 77 126 243 258 297 318 127 128 113 105 91 56 13 342 80 134 131 145 170 187 234 289 16 63 26 5 322 247 272 294 279 295 291 301 320 308 311 327 328 327 344 358 359 354 336 316 291 273 260 248 237 217 198 191 187 183 181 184 186 187 186 187 188 189 192 195 197 198 200 200 201 202 205 207 207 206 201 196 194
145 149 140 130 153 135 122 154 229 303 325 332 329 229 174 161 144 120 96 346 310 268 165 141 152 201 215 226 319 17 53 18 346 306 260 247 242 244 244 245 242 218 301 337 0 5 10 25 27 1 331 307 293 281 271 266 256 246 234 215 200 188 179 181 188 189 187 187 187 186 186 188 187 185 187 191 194 196 196 194 193 193 196 194 185 176
122 158 159 152 175 108 102 106 5 22 325 276 274 293 324 129 139 124 106 337 294 240 174 146 162 205 204 165 200 52 42 8 311 274 256 234 227 240 246 242 188 105 30 4 9 19 32 46 40 355 319 301 296 283 270 269 258 235 219 208 202 193 183 183 191 194 192 189 185 181 182 185 183 181 183 186 190 192 188 186 187 187 183 160 133 132
65 68 114 114 105 92 104 120 156 156 233 247 253 312 346 77 121 93 69 323 270 226 183 156 171 203 199 179 172 131 92 309 270 261 242 214 219 261 278 291 39 52 31 20 24 33 47 60 45 2 338 325 313 294 279 273 250 217 201 192 186 185 182 182 190 196 194 188 183 179 181 182 181 185 188 186 189 194 191 185 176 170 170 142 109 113
65 52 63 80 83 105 112 129 195 193 223 240 249 288 295 263 83 69 42 275 250 207 186 169 177 200 193 173 161 148 170 220 249 255 211 154 108 12 27 34 31 27 21 26 43 56 63 61 41 18 5 347 332 327 309 268 224 197 188 184 176 174 175 176 184 191 186 177 171 169 174 177 177 181 181 174 176 177 165 144 130 130 139 152 144 134
67 60 70 102 123 113 108 131 237 242 220 221 251 278 286 30 63 79 217 240 208 185 196 176 170 188 179 165 170 194 214 219 221 230 89 81 58 42 54 51 42 37 35 43 57 62 62 54 42 33 22 8 356 360 355 242 187 174 170 169 163 162 163 165 170 171 161 151 145 141 144 151 156 158 153 152 154 145 133 124 121 124 130 133 132 132
115 72 61 125 143 135 129 134 170 277 243 204 225 280 350 60 88 218 220 203 147 177 196 163 161 181 179 180 198 214 229 240 83 71 60 63 62 62 63 51 43 43 46 53 60 60 59 54 47 42 36 33 34 32 40 90 137 144 145 144 138 142 147 148 151 151 141 132 129 128 130 132 134 134 130 129 128 122 119 120 121 121 123 123 123 124
159 139 170 186 164 124 102 102 97 246 241 196 166 336 17 117 200 219 196 81 119 164 159 143 168 183 176 192 218 211 192 87 76 79 73 73 73 76 75 61 50 51 50 51 52 54 61 62 54 48 48 51 55 58 62 78 98 111 120 124 127 136 139 136 135 131 123 120 122 122 123 123 123 123 121 119 119 116 114 115 116 116 117 120 120 119
165 146 179 214 189 128 122 173 186 207 226 193 134 149 206 193 189 174 149 110 95 143 147 153 181 191 180 184 200 187 151 109 101 102 94 88 83 82 83 71 63 62 58 53 52 54 62 67 61 55 57 61 64 66 68 74 87 96 101 110 123 127 124 124 126 122 116 116 117 115 115 115 116 117 118 118 119 117 115 115 115 114 115 117 117 116
236 188 167 174 191 166 169 207 211 193 200 186 143 161 179 163 137 152 151 137 145 176 167 159 183 201 187 174 173 160 138 125 122 113 102 100 99 94 91 82 77 79 74 63 61 63 65 71 70 63 59 64 70 69 63 62 75 87 93 106 118 119 117 119 120 118 115 114 111 109 110 110 111 112 113 115 117 117 117 117 116 114 114 115 117 118
268 236 136 125 216 246 226 200 161 132 123 105 92 115 133 122 123 144 135 132 175 194 179 173 189 197 180 169 164 152 143 131 120 113 111 112 106 96 93 89 87 91 87 69 61 67 72 74 73 67 60 63 71 73 68 60 61 70 86 102 111 114 115 116 113 110 108 107 106 107 107 106 105 106 106 109 112 114 116 117 115 114 115 116 117 118
316 348 59 87 150 213 276 351 89 113 122 115 97 94 107 111 119 140 140 154 182 183 181 187 181 169 171 171 156 142 140 129 120 121 121 113 102 91 91 92 91 87 83 75 72 80 84 81 76 72 68 66 71 76 77 71 64 67 82 96 104 109 110 109 106 104 103 103 104 106 105 104 104 105 106 109 111 112 114 116 115 115 116 117 119 120
293 11 48 62 120 150 179 26 75 79 70 74 89 103 118 112 105 121 146 160 159 147 158 177 160 152 165 166 144 131 131 132 131 132 124 108 99 96 97 101 100 92 88 90 91 88 87 85 83 81 77 75 78 83 83 78 71 72 79 88 97 103 103 101 101 101 102 103 103 103 103 105 106 108 109 111 113 114 115 117 119 121 122 123 124 124
189 24 239 138 82 78 90 108 93 76 43 22 43 72 123 117 106 114 139 148 141 132 135 151 159 158 156 152 142 131 129 138 139 130 122 110 104 109 111 109 109 108 107 103 95 89 88 89 91 90 86 83 86 87 85 82 81 82 84 86 93 99 99 98 100 101 102 103 104 104 105 106 107 109 110 112 113 114 116 119 121 122 123 124 125 123
71 26 227 109 96 112 190 192 148 115 105 200 105 76 92 112 110 114 133 146 144 147 151 146 134 127 133 141 142 133 131 140 136 126 121 119 121 125 124 121 122 124 122 114 102 98 100 100 99 97 93 89 87 88 88 89 91 93 93 94 96 98 99 100 101 101 102 104 105 108 110 109 109 110 111 112 113 113 114 116 117 116 114 113 115 116
162 185 176 136 155 207 220 211 176 133 137 194 194 109 86 107 109 112 129 144 139 150 161 154 143 133 129 135 139 137 134 135 132 126 119 124 133 133 132 132 135 134 129 121 115 113 113 112 109 107 105 101 96 96 99 101 102 103 104 105 106 106 105 106 106 105 107 110 112 114 115 114 114 114 114 115 116 117 116 116 115 113 110 109 111 112
Height
772 786 792 789 787 781 778 779 780 780 781 786 793 799 803 806 806 800 800 798 796 807 814 812 812 810 807 803 798 797 797 798 800 800 800 799 799 798 798 799 799 802 804 803 802 801 802 805 806 808 811 813 815 817 818 820 821 823 824 826 827 828 830 831 831 832 833 834 835 836 836 837 838 840 840 841 842 842 842 843 843 844 844 845 845 846
776 792 791 779 776 772 771 772 774 776 777 783 793 801 804 806 805 798 799 800 795 803 811 810 813 811 806 803 800 798 799 800 799 800 800 799 799 798 798 799 800 804 806 805 804 801 802 805 806 808 809 812 815 816 818 819 821 823 824 825 826 828 830 830 831 832 833 834 835 836 836 837 838 839 840 841 841 842 842 843 844 844 844 845 846 846
789 793 782 771 769 770 772 771 772 774 775 783 792 800 806 804 803 802 799 799 798 803 810 811 814 813 806 803 801 799 800 799 797 797 797 797 799 799 798 799 800 803 804 804 804 801 802 804 805 808 809 811 814 815 817 818 820 822 823 825 826 827 829 830 831 832 833 835 835 836 837 837 838 839 840 841 841 842 842 843 844 844 845 845 846 847
797 787 772 766 767 770 773 770 769 771 773 783 792 799 803 799 801 808 805 802 800 802 807 811 815 813 808 805 802 799 799 798 796 795 795 794 797 798 796 796 798 801 803 803 802 800 802 804 805 807 808 810 813 815 816 817 819 820 822 824 825 827 828 829 831 832 833 835 836 836 837 838 839 840 841 841 842 842 843 843 843 844 845 845 846 846
788 771 759 762 766 767 770 768 768 773 776 780 785 791 797 798 797 800 801 802 803 804 804 810 823 818 808 808 805 799 799 799 797 797 797 795 795 795 795 794 795 796 798 801 801 800 801 802 804 806 807 810 812 814 815 816 818 819 821 823 825 827 828 829 830 832 833 834 835 836 837 838 839 840 840 841 841 842 842 843 843 844 844 845 846 846
779 762 755 763 766 765 769 770 769 773 779 780 778 777 786 793 791 794 800 806 818 821 806 808 829 824 809 811 808 802 802 801 799 799 799 797 795 795 796 794 794 794 794 796 797 798 799 801 803 805 806 809 811 813 814 816 818 819 821 823 825 827 828 829 830 832 833 833 834 835 836 837 838 839 840 840 841 841 842 842 843 844 844 845 845 846
771 758 756 763 764 764 770 772 767 768 782 786 774 769 778 786 789 796 803 811 825 824 804 802 821 823 812 808 805 803 806 803 800 800 799 797 796 795 795 794 794 795 794 794 795 796 797 800 802 803 805 808 810 812 814 816 818 819 820 822 824 826 827 829 830 831 832 833 833 834 835 836 837 838 839 840 840 841 842 842 843 844 844 845 845 846
763 759 761 762 763 767 773 775 765 763 780 784 767 766 778 785 792 798 801 807 811 808 805 804 811 821 816 805 801 802 807 808 803 801 798 797 796 794 794 792 792 793 793 794 795 795 796 798 800 802 804 806 809 811 813 815 817 818 820 822 824 826 827 829 830 831 831 832 833 834 835 836 837 838 838 839 841 841 842 843 843 843 844 844 845 845
758 763 765 763 767 772 771 769 761 761 776 775 762 765 772 778 789 795 799 804 800 804 820 814 809 824 821 805 805 805 806 811 805 799 797 795 794 793 792 791 790 790 790 791 793 794 795 796 799 801 803 805 808 810 813 814 816 818 820 822 823 825 827 828 829 830 831 832 832 834 835 836 837 837 838 839 840 841 842 842 843 843 844 844 844 845
757 757 756 759 769 770 764 760 757 762 771 764 759 764 769 777 786 792 799 802 802 810 820 814 809 823 820 806 810 813 809 807 801 796 794 791 791 791 790 790 788 788 789 789 790 791 793 795 797 799 802 805 807 809 812 814 816 818 819 821 823 824 826 827 829 829 830 831 832 833 834 835 836 837 838 839 840 841 842 842 843 843 843 844 844 844
754 747 747 754 760 759 756 755 753 757 761 757 760 767 772 781 787 794 798 798 809 815 808 804 803 812 818 808 806 808 801 794 793 793 792 790 789 789 788 788 787 787 788 788 789 790 792 794 796 799 801 803 806 808 811 813 815 817 819 820 822 823 825 826 828 829 830 831 832 832 833 834 835 836 837 838 839 840 841 842 842 843 843 843 844 844
757 756 754 749 747 749 754 757 753 752 754 758 767 773 780 788 789 797 799 796 813 820 806 803 802 807 820 812 798 795 789 785 788 789 789 788 787 786 785 785 785 785 786 787 788 790 791 793 795 797 800 802 805 807 809 812 813 815 818 819 821 822 824 825 826 828 829 830 831 832 833 834 834 835 836 837 838 839 840 840 841 842 842 843 843 843
766 763 757 750 745 745 757 766 763 758 758 764 772 780 795 807 807 812 815 810 817 819 809 805 805 811 818 806 794 789 783 782 783 781 782 782 782 783 782 783 782 782 783 784 787 789 790 791 793 795 798 800 803 805 807 810 812 814 816 818 820 821 822 824 825 827 828 829 830 831 832 833 834 834 835 836 837 838 838 839 840 841 841 842 842 842
777 769 759 758 754 746 754 770 775 773 770 773 778 785 802 817 827 833 829 823 823 819 809 801 804 815 815 801 791 787 781 778 775 774 775 775 777 778 777 778 779 779 780 782 784 786 787 789 790 793 795 798 800 803 805 808 810 812 814 816 818 820 821 823 824 825 827 828 829 830 831 832 833 833 834 835 836 837 838 838 839 840 840 841 841 841
792 791 770 763 761 751 754 761 767 771 773 775 775 782 795 807 821 832 829 828 828 822 814 807 809 819 817 802 789 784 782 778 775 772 771 771 773 774 775 776 778 777 777 779 781 783 784 786 788 790 793 795 798 800 803 805 808 810 812 814 816 818 820 821 822 824 825 827 828 829 831 831 832 833 833 834 835 836 837 838 838 839 839 840 840 841
790 792 767 755 753 751 756 753 751 764 778 778 773 782 794 794 801 814 818 816 818 822 821 815 812 810 804 794 784 783 783 779 778 775 773 774 773 773 776 776 776 777 776 777 779 780 781 783 785 787 790 793 795 798 801 803 805 808 810 812 814 816 818 819 821 822 823 825 827 828 829 830 831 832 833 833 834 835 836 837 837 838 839 839 840 840
787 786 764 755 754 749 754 752 747 759 776 780 781 789 788 780 786 805 816 809 809 824 825 816 815 809 800 795 786 784 785 782 780 779 777 777 775 775 778 776 776 777 776 776 777 778 780 783 784 785 787 790 793 795 798 800 803 805 807 810 812 814 816 818 819 821 822 824 826 827 828 829 830 831 832 832 833 834 835 836 837 837 838 838 839 839
780 784 767 760 764 754 747 750 750 751 760 775 788 786 779 780 785 798 816 820 822 832 825 816 820 818 813 809 794 787 791 788 784 782 780 779 777 777 777 775 776 776 775 775 775 777 779 784 787 785 785 787 790 793 795 797 800 802 805 807 809 812 814 816 818 819 821 822 824 826 827 828 829 830 831 832 833 834 835 835 836 836 837 837 838 838
770 784 775 762 766 760 747 755 765 760 753 763 774 772 777 797 802 803 817 828 834 839 830 822 823 819 818 815 804 798 797 792 788 785 784 783 780 779 777 775 775 776 777 776 775 777 778 781 785 785 785 785 787 791 793 795 798 800 803 805 807 809 811 813 816 818 819 821 822 824 825 827 828 829 830 831 832 833 833 834 835 835 835 836 836 837
766 785 787 768 762 762 758 766 780 778 765 761 767 770 777 792 800 804 812 819 827 838 839 832 827 822 816 810 806 803 797 792 790 787 786 785 782 780 779 776 775 776 778 776 775 776 775 777 781 782 784 784 784 788 791 793 796 798 801 803 805 807 809 812 814 816 818 819 821 822 824 825 827 828 829 830 831 832 832 833 833 833 834 834 835 835
767 783 791 777 765 769 774 774 777 781 776 774 780 785 786 788 792 800 810 813 818 830 840 840 835 825 809 799 799 799 794 791 789 788 786 785 783 782 780 779 777 776 777 777 774 773 772 774 777 779 782 784 784 785 788 791 794 796 798 800 802 805 807 809 812 814 816 817 819 821 822 824 825 826 828 829 829 830 830 831 832 832 833 833 833 833
771 780 788 786 780 780 779 768 764 769 771 775 782 786 788 789 794 808 822 822 817 821 828 834 837 822 799 792 793 790 789 789 787 787 787 785 783 783 781 780 778 776 776 776 773 772 771 771 773 775 779 783 784 784 785 788 791 793 796 798 800 802 804 807 809 811 814 815 817 819 820 822 823 825 826 827 828 829 829 830 830 830 831 831 831 832
766 776 785 791 787 781 774 763 760 764 764 769 776 780 784 788 793 808 823 820 817 820 818 823 832 817 793 789 789 786 786 786 784 785 786 785 782 781 780 778 777 775 774 774 773 772 772 772 773 774 775 779 783 783 783 784 787 791 793 795 798 799 801 804 806 809 811 813 815 817 818 820 821 823 824 825 826 826 827 827 828 829 829 829 830 830
765 778 788 792 787 778 771 764 761 761 764 773 778 777 781 785 786 794 802 804 811 819 817 824 833 814 790 786 787 786 785 783 782 782 783 784 782 780 779 776 775 775 773 773 774 776 776 776 775 775 774 776 779 783 783 782 784 787 790 792 795 797 799 801 804 807 809 811 813 815 817 818 819 820 822 822 823 824 825 825 826 827 827 827 828 828
773 785 791 800 803 797 790 785 779 773 772 778 781 777 777 781 784 790 794 798 809 814 811 824 830 809 789 787 787 786 785 782 782 782 782 784 783 781 779 776 775 773 772 773 775 779 782 781 778 775 774 774 776 780 781 781 781 783 786 789 791 794 797 799 802 804 806 808 810 812 814 815 817 818 818 820 821 821 822 823 824 824 825 825 826 826
772 783 787 801 815 817 814 807 796 788 782 780 780 778 777 781 785 790 797 806 814 811 808 816 818 802 788 787 787 786 784 783 782 782 784 785 784 782 780 778 776 772 770 771 773 778 782 784 783 780 775 773 774 777 779 780 780 781 783 786 788 791 794 797 799 801 804 806 808 810 811 813 814 815 816 817 818 819 820 821 821 822 822 823 823 824
771 778 779 788 799 802 801 794 784 784 786 784 782 779 779 782 782 787 800 808 807 809 811 806 800 797 792 787 785 784 784 783 782 784 786 786 784 782 779 778 775 772 769 767 768 773 776 779 783 784 781 776 773 774 777 778 778 779 781 783 786 788 791 794 797 799 801 803 805 807 808 809 811 812 813 814 815 816 817 818 819 819 820 820 821 822
773 781 778 780 782 782 783 781 776 780 783 782 781 780 779 782 783 786 794 796 795 808 815 800 791 798 794 784 782 783 782 784 783 783 785 784 781 779 778 777 775 773 770 767 767 770 772 773 774 776 780 780 777 774 773 775 777 778 779 782 784 787 789 791 793 795 798 800 801 803 805 806 808 809 810 812 812 814 814 815 816 816 817 818 818 819
773 782 777 777 779 776 775 776 774 775 777 775 776 777 776 779 782 783 785 785 787 797 800 789 789 795 788 781 782 782 781 782 781 781 782 782 781 779 779 780 777 776 774 770 768 769 771 772 771 771 773 777 781 779 773 772 775 776 778 779 782 785 787 789 791 793 795 797 798 800 802 803 805 806 808 809 810 811 812 813 814 815 815 816 816 817
769 779 774 775 778 774 771 771 770 771 775 775 773 773 774 777 779 777 779 781 781 783 784 784 790 791 786 785 784 781 781 780 778 780 780 781 782 782 782 781 779 778 777 773 770 768 768 770 771 772 771 772 778 781 777 773 772 773 776 777 780 784 786 788 790 791 793 794 795 797 799 801 803 804 805 807 808 809 810 811 812 813 813 813 814 816
766 776 774 773 780 780 772 770 772 774 776 776 775 773 773 776 778 775 776 780 782 784 785 789 796 795 789 787 784 781 780 779 778 779 778 779 781 782 782 781 779 779 778 774 770 768 767 767 768 770 770 769 772 775 778 777 774 772 773 775 778 781 784 786 788 789 791 792 793 795 797 798 800 802 804 805 807 808 809 810 810 811 811 811 812 814
765 774 773 775 788 789 777 776 779 774 773 777 778 775 772 774 777 775 774 778 781 784 789 795 799 795 788 785 784 782 781 780 778 776 776 778 780 782 782 781 779 779 777 775 772 768 767 767 766 766 767 768 770 770 773 776 775 773 771 773 776 779 781 783 784 786 788 789 790 792 794 796 798 800 802 803 804 806 807 808 808 808 808 809 810 811
765 771 774 780 792 792 781 780 780 777 786 791 781 772 772 772 774 775 775 775 773 775 784 792 790 785 784 784 784 783 782 780 778 776 778 780 780 781 781 780 779 778 776 775 773 770 769 768 767 767 766 767 769 769 770 772 773 772 771 771 773 776 779 780 781 783 784 785 787 788 791 795 796 797 799 800 802 803 804 804 805 805 806 806 807 808
764 767 774 779 789 793 786 779 781 793 805 797 773 764 769 772 774 780 784 781 776 774 777 781 781 780 783 783 779 778 780 779 779 778 779 780 780 781 780 779 778 778 776 775 774 772 771 769 767 768 768 768 769 769 770 771 771 771 770 770 771 773 775 777 778 780 781 782 784 786 788 792 794 796 797 798 800 801 802 803 803 804 804 805 805 806
764 767 773 776 782 789 785 783 799 812 803 780 764 763 769 771 773 780 786 785 782 780 777 779 781 780 780 779 776 776 779 780 780 779 777 778 778 779 779 779 777 777 776 775 773 772 771 769 768 767 767 769 770 769 770 770 770 770 770 769 769 770 772 774 775 776 778 779 781 783 785 787 790 793 794 796 797 798 799 801 802 803 803 803 804 805
761 766 771 775 781 787 790 797 810 806 784 768 766 766 768 772 772 777 789 790 784 782 781 781 783 781 778 779 778 778 781 781 780 779 777 776 776 776 778 778 776 776 775 774 773 772 771 769 768 767 766 767 768 769 769 769 769 769 769 768 767 767 768 772 773 773 774 776 778 779 781 784 786 788 791 793 795 796 797 798 800 801 802 803 804 805
753 760 766 775 782 788 795 800 798 792 785 778 773 768 766 769 766 771 790 794 784 782 783 781 782 781 779 781 781 780 781 783 783 782 778 776 775 774 774 775 774 774 773 772 772 771 770 769 768 766 766 765 765 766 767 767 767 768 768 770 769 768 768 770 772 772 772 773 775 776 779 781 783 785 788 791 793 794 795 796 798 800 802 804 804 804
749 754 760 773 783 785 792 799 799 803 802 789 777 768 762 762 761 764 784 794 784 780 781 778 778 779 779 782 783 782 784 787 786 782 777 775 774 772 772 772 772 773 773 772 772 771 769 769 767 766 765 764 763 763 763 763 764 764 765 767 769 770 770 770 771 772 772 772 773 774 776 779 781 783 786 788 791 793 794 795 797 799 803 806 806 806
753 756 758 770 782 784 789 799 804 806 800 785 775 768 763 764 761 762 783 797 785 777 779 777 777 779 780 782 783 783 788 790 784 779 776 774 773 773 773 773 772 773 774 773 772 771 769 768 766 764 764 762 761 760 758 758 758 757 759 762 765 768 771 772 773 774 774 772 771 773 775 777 780 783 785 787 790 792 794 795 795 798 804 808 809 810
758 762 765 774 784 784 787 796 798 795 788 778 772 768 766 763 760 773 798 799 778 773 779 776 775 778 778 780 783 784 786 785 780 776 774 773 774 775 775 775 774 774 774 773 773 771 770 768 765 764 763 761 759 756 752 748 748 750 753 757 761 764 767 770 773 776 777 773 770 772 774 777 779 783 785 788 790 792 795 796 796 799 803 807 809 810
764 766 772 779 784 785 788 794 795 789 780 772 770 767 762 762 771 790 801 785 769 772 776 772 774 777 776 778 781 780 779 776 775 775 773 774 776 776 776 776 776 775 774 774 773 772 770 768 766 765 764 761 758 753 746 740 741 745 749 754 758 761 764 767 770 775 777 774 771 772 774 777 780 783 785 788 790 792 795 797 798 799 801 804 807 809
770 774 779 780 782 784 785 790 797 794 777 765 766 764 761 771 787 790 780 769 768 772 772 771 774 774 774 776 777 775 774 773 774 775 774 775 777 777 777 777 776 776 776 775 774 773 771 769 767 766 764 761 757 751 745 743 745 747 749 754 758 761 764 766 769 773 775 774 772 772 775 777 780 783 786 788 790 792 795 798 799 799 800 804 808 810
766 775 782 780 778 784 788 793 802 799 776 761 765 767 767 776 782 774 766 768 769 769 770 773 773 772 774 775 773 773 774 774 775 776 775 776 777 778 778 778 777 778 777 776 776 775 773 771 769 767 765 762 758 754 751 751 751 751 753 757 760 763 765 766 769 772 774 774 773 774 777 779 781 782 785 788 791 793 796 798 800 801 803 807 810 812
761 769 779 777 773 781 791 792 788 779 765 759 764 769 768 768 765 763 766 769 769 769 771 772 771 771 772 771 772 773 774 775 777 777 776 777 778 778 779 779 778 779 778 778 778 777 775 774 771 769 767 763 760 758 757 756 756 756 758 760 761 763 766 768 770 772 775 776 777 777 779 780 781 783 787 790 792 793 796 800 802 804 807 810 812 814
760 759 764 767 765 769 774 772 764 759 758 758 760 762 763 762 760 761 764 767 769 769 769 769 771 771 769 770 772 773 774 776 777 777 777 778 778 779 779 779 779 780 779 780 779 779 778 776 774 772 769 765 762 760 760 760 760 760 761 762 763 765 768 771 772 774 777 779 779 779 780 781 783 786 789 791 792 793 797 802 805 808 811 813 814 816
756 752 754 758 761 761 760 758 756 757 759 758 757 758 760 760 760 760 762 766 768 767 766 768 769 768 768 770 771 773 775 777 777 778 778 778 779 780 780 780 781 780 780 780 780 780 779 778 777 775 772 768 765 763 763 764 764 764 764 765 766 769 772 774 774 775 778 779 780 781 782 783 785 788 790 793 796 798 801 805 808 811 814 816 817 819
755 755 756 758 762 765 765 762 758 759 761 760 759 760 760 760 760 760 761 764 764 765 765 766 766 767 768 769 770 773 776 776 777 779 779 779 780 781 781 782 782 781 781 781 781 781 781 780 779 777 775 773 770 767 767 768 768 769 770 770 771 774 776 776 775 776 779 781 782 784 784 785 787 790 793 797 801 803 806 809 811 815 818 819 820 821
757 755 759 762 763 765 768 765 761 761 762 760 760 762 761 761 761 760 760 762 762 764 765 765 766 767 768 769 771 773 775 776 778 779 780 781 782 783 783 784 783 783 783 783 783 783 782 781 781 780 778 777 775 772 771 772 774 775 775 776 778 779 779 778 778 779 782 784 785 786 787 789 791 793 796 801 804 806 810 813 815 818 820 821 822 823
756 757 760 763 766 769 771 768 764 765 767 765 763 763 761 760 761 761 761 761 762 764 765 765 766 766 767 769 771 772 775 777 777 778 780 782 783 784 784 785 784 785 785 785 785 785 784 784 784 783 782 781 779 777 776 777 779 780 780 781 783 782 781 782 782 783 785 786 787 790 792 794 796 797 800 803 806 809 813 816 819 820 821 823 824 824
758 762 761 763 770 774 772 767 763 767 772 770 766 763 762 760 761 762 762 762 763 765 766 766 767 767 767 768 770 771 774 776 776 778 781 782 783 785 785 785 785 786 786 786 787 787 787 787 786 786 786 786 784 782 781 781 781 782 783 785 787 786 786 786 786 788 789 790 791 794 796 797 800 802 804 806 809 812 816 818 821 822 823 824 825 826
757 759 758 762 768 767 763 760 759 762 767 768 765 763 763 761 761 763 764 764 764 765 765 766 767 768 769 769 769 770 773 774 776 778 780 783 784 785 785 786 786 787 787 788 788 789 789 790 789 789 789 789 788 787 785 784 784 784 786 788 790 790 790 789 790 791 793 794 795 797 798 800 802 804 807 809 812 814 817 819 822 824 825 826 827 827